Total_Precipitation_Accumulation
0.01 0.04 0.16 0.29 0.50 0.82 0.93 0.61 0.53 0.38 0.31 0.34 0.28 0.25 0.32 0.48 0.57 0.74 0.30 0.09 0.02 0.02 0.03 0.06 0.07 0.06 0.06 0.07 0.09 0.12 0.12 0.12 0.13 0.15 0.17 0.19 0.22 0.19 0.16 0.14 0.14 0.14 0.12 0.12 0.11 0.11 0.11 0.11 0.11
0.01 0.05 0.17 0.28 0.61 1.08 0.93 0.47 0.33 0.28 0.27 0.31 0.30 0.30 0.45 0.48 0.36 0.34 0.18 0.07 0.03 0.02 0.02 0.03 0.06 0.06 0.05 0.07 0.09 0.12 0.14 0.12 0.13 0.17 0.19 0.18 0.21 0.20 0.19 0.18 0.18 0.17 0.12 0.10 0.08 0.08 0.09 0.09 0.07
0.01 0.05 0.16 0.29 0.58 0.83 0.67 0.39 0.25 0.20 0.27 0.41 0.43 0.36 0.54 0.51 0.38 0.34 0.18 0.05 0.03 0.04 0.06 0.05 0.06 0.06 0.06 0.07 0.09 0.12 0.15 0.13 0.14 0.18 0.18 0.18 0.20 0.21 0.21 0.23 0.24 0.22 0.16 0.12 0.10 0.08 0.07 0.07 0.06
0.01 0.06 0.13 0.24 0.37 0.40 0.34 0.25 0.21 0.21 0.26 0.40 0.48 0.45 0.52 0.38 0.24 0.23 0.15 0.06 0.04 0.05 0.09 0.08 0.06 0.06 0.06 0.06 0.07 0.09 0.13 0.15 0.16 0.18 0.19 0.21 0.24 0.24 0.19 0.22 0.22 0.21 0.17 0.13 0.13 0.12 0.08 0.07 0.06
0.02 0.06 0.14 0.23 0.30 0.30 0.26 0.21 0.22 0.31 0.35 0.42 0.45 0.63 0.63 0.42 0.28 0.20 0.14 0.08 0.04 0.05 0.06 0.07 0.08 0.08 0.08 0.08 0.07 0.08 0.12 0.14 0.15 0.18 0.22 0.23 0.25 0.26 0.26 0.23 0.20 0.17 0.14 0.13 0.18 0.20 0.16 0.11 0.11
0.02 0.04 0.08 0.15 0.22 0.23 0.22 0.18 0.17 0.26 0.39 0.45 0.45 0.56 0.68 0.50 0.38 0.27 0.16 0.10 0.06 0.06 0.08 0.11 0.12 0.11 0.10 0.09 0.10 0.11 0.13 0.15 0.15 0.16 0.18 0.19 0.18 0.21 0.24 0.23 0.22 0.18 0.18 0.19 0.19 0.19 0.19 0.21 0.19
0.01 0.03 0.03 0.07 0.11 0.12 0.15 0.16 0.16 0.22 0.35 0.41 0.40 0.63 0.79 0.66 0.47 0.36 0.28 0.25 0.17 0.13 0.13 0.16 0.19 0.20 0.18 0.18 0.19 0.18 0.18 0.18 0.17 0.18 0.19 0.20 0.21 0.23 0.24 0.23 0.22 0.21 0.23 0.22 0.20 0.17 0.17 0.21 0.21
0.01 0.02 0.02 0.02 0.04 0.07 0.07 0.10 0.15 0.22 0.26 0.35 0.38 0.59 0.84 0.69 0.49 0.52 0.62 0.56 0.43 0.32 0.27 0.27 0.33 0.40 0.33 0.27 0.26 0.24 0.24 0.23 0.24 0.25 0.26 0.28 0.30 0.32 0.34 0.33 0.32 0.31 0.32 0.30 0.27 0.23 0.23 0.25 0.25
0.01 0.01 0.01 0.01 0.02 0.06 0.06 0.09 0.13 0.13 0.18 0.26 0.35 0.46 0.62 0.51 0.52 0.76 1.03 0.86 0.71 0.57 0.43 0.36 0.35 0.44 0.49 0.42 0.35 0.35 0.36 0.36 0.37 0.45 0.46 0.49 0.57 0.61 0.64 0.55 0.60 0.60 0.62 0.60 0.56 0.49 0.45 0.40 0.34
0.00 0.00 0.01 0.01 0.01 0.02 0.04 0.07 0.12 0.15 0.28 0.49 0.60 0.61 0.55 0.63 0.79 1.07 1.20 1.05 0.88 0.82 0.62 0.50 0.47 0.44 0.49 0.49 0.60 0.67 0.66 0.68 0.68 0.81 0.84 0.93 1.02 0.96 0.74 0.79 1.00 1.18 1.25 1.18 1.17 1.12 0.92 0.77 0.73
0.00 0.00 0.00 0.00 0.00 0.01 0.02 0.06 0.11 0.20 0.44 0.80 0.91 0.89 0.81 0.98 1.25 1.47 1.55 1.49 1.30 1.20 0.89 0.69 0.63 0.65 0.63 0.73 0.73 0.82 0.97 1.11 1.05 1.03 1.16 1.31 1.24 1.02 0.90 1.01 1.19 1.37 1.48 1.60 1.89 1.89 1.50 1.50 1.52
0.00 0.00 0.00 0.00 0.00 0.01 0.02 0.05 0.15 0.33 0.65 0.80 0.94 1.01 0.98 1.17 1.38 1.55 1.99 2.04 1.62 1.34 1.20 1.06 0.95 0.93 0.97 0.91 0.99 1.00 1.03 1.10 1.11 1.24 1.34 1.45 1.49 1.38 1.32 1.43 1.49 1.66 1.76 2.10 2.14 2.22 2.06 1.86 1.65
0.00 0.00 0.00 0.00 0.00 0.01 0.03 0.07 0.15 0.33 0.49 0.56 0.74 0.83 0.86 1.21 1.48 1.79 2.34 2.23 1.94 1.75 1.54 1.36 1.36 1.41 1.34 1.28 1.31 1.20 1.20 1.20 1.27 1.40 1.55 1.63 1.69 1.63 1.64 1.72 1.77 1.61 1.75 2.04 2.25 2.18 2.34 2.32 2.10
0.00 0.00 0.00 0.01 0.01 0.02 0.03 0.10 0.20 0.38 0.49 0.65 0.68 0.85 1.06 1.41 1.64 2.00 2.31 2.52 2.29 2.03 1.81 1.66 1.58 1.64 1.68 1.62 1.67 1.63 1.41 1.44 1.44 1.62 1.66 1.77 1.82 1.87 1.96 1.97 1.91 1.70 1.71 1.97 2.22 2.15 2.43 2.34 2.29
0.01 0.01 0.04 0.03 0.03 0.04 0.06 0.20 0.40 0.50 0.64 0.76 0.87 1.00 1.20 1.47 1.94 2.16 2.33 2.70 2.63 2.43 2.26 2.02 1.89 2.05 2.21 2.23 2.16 2.02 1.82 1.65 1.67 1.76 1.78 1.85 1.86 2.01 2.01 1.94 1.89 1.86 1.84 2.03 2.13 2.20 2.36 2.18 2.05
0.01 0.03 0.09 0.10 0.07 0.07 0.12 0.48 0.57 0.47 0.73 0.90 0.95 1.12 1.48 1.79 2.17 2.64 2.70 2.59 2.57 2.63 2.60 2.25 2.10 2.47 2.76 2.72 2.61 2.44 2.17 1.94 1.81 1.86 1.82 1.88 1.92 2.03 2.15 1.93 1.85 2.09 2.09 2.20 2.41 2.40 2.51 2.54 2.39
0.01 0.05 0.10 0.14 0.09 0.09 0.22 0.65 0.57 0.42 0.58 0.77 1.00 1.18 1.63 2.11 2.42 2.53 2.53 2.67 2.78 2.82 2.78 2.62 2.64 2.74 2.88 2.91 2.93 2.69 2.42 2.18 1.96 1.84 1.77 1.80 1.92 2.12 2.43 2.21 2.20 2.27 2.28 2.30 2.05 2.51 2.78 2.72 2.55
0.01 0.04 0.09 0.13 0.11 0.15 0.25 0.49 0.52 0.47 0.61 0.82 1.14 1.31 1.48 1.85 2.28 2.35 2.40 2.78 2.86 2.99 3.05 2.88 2.89 3.02 3.27 3.46 3.49 3.09 2.67 2.34 2.12 1.98 1.94 2.00 2.20 2.37 2.60 2.36 2.30 2.32 2.39 2.33 2.39 2.72 2.70 2.46 2.46
0.01 0.04 0.11 0.14 0.12 0.18 0.29 0.49 0.63 0.62 0.77 1.16 1.38 1.34 1.33 1.59 2.06 2.42 2.64 2.79 3.07 3.20 3.32 3.24 3.32 3.67 3.95 3.77 3.40 3.17 2.85 2.60 2.38 2.19 2.08 2.08 2.09 2.26 2.52 2.34 2.48 2.40 2.26 2.23 2.35 2.59 2.59 2.32 2.55
0.02 0.06 0.13 0.15 0.13 0.21 0.36 0.58 0.74 0.82 1.07 1.23 1.15 1.15 1.32 1.61 2.06 2.41 2.63 2.75 2.97 3.22 3.63 3.67 3.72 4.01 4.17 3.94 3.69 3.46 3.24 2.87 2.73 2.57 2.39 2.11 2.00 2.11 2.19 2.39 2.23 2.21 2.21 2.20 2.34 2.50 2.32 2.03 2.48
0.04 0.06 0.12 0.12 0.19 0.31 0.39 0.78 0.94 1.06 1.20 1.18 1.14 1.29 1.36 1.44 1.81 2.03 2.07 2.26 2.43 2.53 2.78 3.01 3.36 3.74 3.81 3.83 3.70 3.57 3.45 2.98 2.79 2.62 2.41 2.17 2.01 1.97 2.06 2.17 2.17 2.09 2.07 2.07 2.25 2.29 2.22 2.09 2.24
0.06 0.05 0.05 0.08 0.16 0.41 0.49 0.99 1.20 1.39 1.45 1.26 1.21 1.20 1.21 1.42 1.73 1.72 1.59 1.75 1.93 1.87 2.12 2.46 2.81 3.07 3.21 3.32 3.32 3.32 3.18 2.94 2.86 2.68 2.31 2.05 1.89 1.87 1.92 1.95 1.94 1.94 1.89 1.88 1.83 1.92 2.22 2.27 2.09
0.04 0.04 0.06 0.09 0.16 0.37 0.44 0.77 1.23 1.56 1.65 1.29 1.18 1.12 1.18 1.37 1.41 1.41 1.45 1.55 1.65 1.74 1.99 2.26 2.46 2.68 2.81 2.87 2.88 2.88 2.76 2.63 2.55 2.39 2.11 1.91 1.76 1.68 1.58 1.62 1.78 1.82 1.74 1.67 1.69 1.81 1.96 1.98 1.96
0.04 0.07 0.12 0.17 0.34 0.68 0.58 0.68 1.17 1.47 1.29 1.12 1.07 0.92 1.00 1.21 1.30 1.37 1.44 1.48 1.57 1.82 2.11 2.34 2.49 2.63 2.66 2.46 2.32 2.32 2.32 2.28 2.18 2.02 1.83 1.64 1.52 1.44 1.35 1.42 1.56 1.60 1.59 1.58 1.55 1.60 1.70 1.77 1.82
0.08 0.16 0.54 0.89 1.21 1.10 0.70 0.79 1.36 1.22 0.87 0.78 0.86 0.84 0.85 0.93 1.09 1.20 1.36 1.52 1.63 1.70 1.72 1.98 2.28 2.45 2.39 2.19 2.02 1.95 1.98 1.97 1.90 1.76 1.65 1.56 1.39 1.29 1.26 1.28 1.30 1.33 1.37 1.42 1.45 1.48 1.54 1.67 1.74
0.13 0.24 0.68 0.92 0.96 0.94 0.74 1.13 1.51 1.12 0.77 0.62 0.69 0.70 0.62 0.59 0.56 0.65 0.78 0.85 0.93 0.94 0.93 1.04 1.21 1.37 1.42 1.36 1.37 1.39 1.43 1.46 1.47 1.54 1.45 1.41 1.34 1.21 1.16 1.10 1.08 1.13 1.16 1.19 1.33 1.42 1.52 1.63 1.69
0.24 0.28 0.28 0.48 0.65 0.95 0.93 1.12 1.10 0.84 0.67 0.61 0.67 0.65 0.53 0.48 0.43 0.47 0.53 0.52 0.60 0.61 0.65 0.77 0.88 0.97 0.99 0.96 0.94 0.95 1.01 1.11 1.16 1.18 1.16 1.17 1.16 1.10 1.08 1.07 1.09 1.06 1.07 1.13 1.23 1.32 1.36 1.50 1.58
0.20 0.28 0.42 0.65 0.86 0.92 0.96 1.25 1.36 1.15 0.94 0.75 0.72 0.67 0.51 0.41 0.36 0.37 0.44 0.45 0.55 0.66 0.77 0.89 0.91 0.88 0.82 0.80 0.77 0.71 0.79 0.85 0.90 0.89 0.87 0.86 0.86 0.89 0.89 0.90 0.92 0.94 0.94 0.97 1.07 1.17 1.24 1.35 1.41
0.22 0.30 0.45 0.61 0.67 0.81 1.06 1.14 0.84 0.78 0.83 0.90 0.92 0.78 0.53 0.40 0.34 0.35 0.41 0.44 0.50 0.60 0.70 0.78 0.82 0.85 0.79 0.73 0.74 0.73 0.70 0.68 0.70 0.74 0.72 0.74 0.74 0.74 0.74 0.76 0.79 0.82 0.87 0.93 0.96 1.01 1.09 1.14 1.19
0.21 0.31 0.47 0.69 0.74 0.76 0.84 0.89 0.49 0.47 0.56 0.65 0.66 0.55 0.38 0.31 0.29 0.29 0.31 0.32 0.39 0.48 0.56 0.59 0.63 0.74 0.73 0.67 0.68 0.71 0.67 0.61 0.61 0.60 0.58 0.61 0.63 0.64 0.65 0.67 0.70 0.73 0.79 0.87 0.97 1.02 1.08 1.10 1.11